Flight Track Log - Related Links

Times and Time Zones

All times are in EDT time to prevent confusion due to time zone crossing. See the AAY860 flight status page for this flight to view local times or setup timezone preferences in your user account.

Time Position Orientation Groundspeed Altitude Reporting Facility
EDT Latitude Longitude Course Direction KTS MPH feet Rate Location/Type
Fri 06:52:33 27.9333 -82.7000 North 151 174 900  Level Tampa TRACON
Fri 06:53:09 27.9500 -82.6833 41° Northeast 157 181 2,100 1,938 Climbing Tampa TRACON
Fri 06:54:09 28.0000 -82.6667 16° North 168 193 4,000 1,800 Climbing Tampa TRACON
Fri 06:55:09 28.0500 -82.6667 360° North 191 220 5,700 1,885 Climbing Tampa TRACON
Fri 06:57:00 28.7857 -82.6333 North  Level FlightAware Approximate
Fri 07:01:06 28.5354 -82.6658 North 373 429 17,100  Level FlightAware ADS-B
Fri 07:01:57 28.6528 -82.6600 North 379 436 18,800 1,585 Climbing FlightAware ADS-B
Fri 07:06:43 29.1958 -82.6318 North 436 502 26,000 1,286 Climbing FlightAware ADS-B
Fri 07:11:54 29.8478 -82.5977 North 465 535 31,600 1,116 Climbing FlightAware ADS-B
Fri 07:12:54 29.9593 -82.5920 North 459 528 32,900 1,191 Climbing FlightAware ADS-B
Fri 07:14:15 30.1429 -82.5823 North 455 524 34,400 1,131 Climbing FlightAware ADS-B
Fri 07:14:56 30.2322 -82.5775 North 451 519 35,200 857 Climbing FlightAware ADS-B
Fri 07:17:17 30.5102 -82.5628 North 448 516 37,000 560 Climbing FlightAware ADS-B
Fri 07:18:09 30.6169 -82.5619 North 441 507 37,000 -54 Level Jacksonville Center
Fri 07:19:09 30.7381 -82.5542 North 441 507 36,900 -50 Descending Jacksonville Center
Fri 07:20:09 30.8631 -82.5464 North 441 507 36,900 50 Level Jacksonville Center
Fri 07:21:09 30.9883 -82.5386 North 441 507 37,000 50 Climbing Jacksonville Center
Fri 07:22:09 31.1136 -82.5358 North 441 507 37,000  Level Jacksonville Center
Fri 07:23:09 31.2369 -82.5281 North 441 507 37,000  Level Jacksonville Center
Fri 07:24:51 31.4450 -82.5153 North 439 505 37,000  Level Atlanta Center
Fri 07:25:51 31.5683 -82.5228 357° North 439 505 37,000  Level Atlanta Center
Fri 07:26:51 31.6897 -82.5597 345° North 439 505 37,000  Level Atlanta Center
Fri 07:27:51 31.8069 -82.5969 345° North 439 505 37,000  Level Atlanta Center
Fri 07:28:51 31.9264 -82.6392 343° North 439 505 37,000  Level Atlanta Center
Fri 07:29:51 32.0458 -82.6764 345° North 439 505 37,000  Level Atlanta Center
Fri 07:30:51 32.1675 -82.7189 344° North 439 505 37,000  Level Atlanta Center
Fri 07:31:51 32.2847 -82.7589 344° North 439 505 37,000  Level Atlanta Center
Fri 07:32:51 32.4042 -82.7964 345° North 439 505 37,000  Level Atlanta Center
Fri 07:33:51 32.5319 -82.8414 343° North 433 498 37,000  Level Atlanta Center
Fri 07:34:51 32.6492 -82.8819 344° North 428 493 37,000  Level Atlanta Center
Fri 07:35:51 32.7642 -82.9222 344° North 428 493 37,000  Level Atlanta Center
Fri 07:36:51 32.8794 -82.9603 345° North 428 493 37,000  Level Atlanta Center
Fri 07:37:51 32.9944 -82.9986 344° North 428 493 37,000  Level Atlanta Center
Fri 07:38:51 33.1117 -83.0369 345° North 428 493 37,000  Level Atlanta Center
Fri 07:39:51 33.2269 -83.0778 343° North 428 493 37,000  Level Atlanta Center
Fri 07:40:51 33.3442 -83.1189 344° North 428 493 37,000  Level Atlanta Center
Fri 07:41:51 33.4592 -83.1550 345° North 428 493 37,000 -150 Level Atlanta Center
Fri 07:42:51 33.5722 -83.1961 343° North 428 493 36,700 -153 Descending Atlanta Center
Fri 07:48:24 34.2403 -83.4079 347° North 427 491 36,000 -113 Descending FlightAware ADS-B (KDZJ)
Fri 07:49:02 34.3138 -83.4290 347° North 429 494 36,000  Level FlightAware ADS-B (KDZJ)
Fri 07:49:44 34.3964 -83.4528 347° North 432 497 36,000  Level FlightAware ADS-B (KDZJ)
Fri 07:50:19 34.4650 -83.4725 347° North 434 499 36,000  Level FlightAware ADS-B (KDZJ)
Fri 07:51:01 34.5471 -83.4960 347° North 433 498 36,000  Level FlightAware ADS-B (KDZJ)
Fri 07:51:45 34.6324 -83.5206 347° North 433 498 36,000  Level FlightAware ADS-B (KDZJ)
Fri 07:52:45 34.7494 -83.5544 347° North 430 495 36,000  Level FlightAware ADS-B (KDZJ)
Fri 07:53:26 34.8274 -83.5771 347° North 428 493 36,000  Level FlightAware ADS-B (KDZJ)
Fri 07:54:05 34.9023 -83.5990 347° North 427 491 36,000  Level FlightAware ADS-B (KDZJ)
Fri 07:54:45 34.9808 -83.6218 346° North 418 481 36,000  Level FlightAware ADS-B (KDZJ)
Fri 07:55:26 35.0584 -83.6444 346° North 418 481 36,000  Level FlightAware ADS-B (KDZJ)
Fri 07:56:05 35.1341 -83.6665 346° North 417 480 36,000  Level FlightAware ADS-B (KDZJ)
Fri 07:56:46 35.2113 -83.6892 346° North 417 480 36,000  Level FlightAware ADS-B (KDZJ)
Fri 07:57:26 35.2885 -83.7119 346° North 417 480 36,000  Level FlightAware ADS-B (KDZJ)
Fri 07:57:56 35.3461 -83.7288 346° North 416 479 36,000  Level FlightAware ADS-B (KDZJ)
Fri 07:58:41 35.4320 -83.7540 346° North 416 479 36,000  Level FlightAware ADS-B (KDZJ)
Fri 07:59:29 35.5241 -83.7813 346° North 417 480 36,000  Level FlightAware ADS-B (KDZJ)
Fri 08:00:51 35.6325 -83.8164 346° North 414 476 36,000  Level Atlanta Center
Fri 08:01:51 35.7472 -83.8494 347° North 414 476 36,000  Level Atlanta Center
Fri 08:02:51 35.8600 -83.8825 347° North 414 476 36,000 -50 Level Atlanta Center
Fri 08:03:51 35.9747 -83.9156 347° North 414 476 35,900 -833 Descending Atlanta Center
Fri 08:05:51 36.2081 -83.9758 348° North 434 499 33,500 -1,154 Descending Indianapolis Center
Fri 08:06:53 36.3503 -84.0167 347° North 438 504 32,400 -1,016 Descending Indianapolis Center
Fri 08:07:55 36.4681 -84.0481 348° North 438 504 31,400 -968 Descending Indianapolis Center
Fri 08:08:57 36.5853 -84.0811 347° North 437 503 30,400 -968 Descending Indianapolis Center
Fri 08:09:59 36.6997 -84.1128 347° North 426 490 29,400 -976 Descending Indianapolis Center
Fri 08:11:00 36.8144 -84.1447 347° North 423 487 28,400 -927 Descending Indianapolis Center
Fri 08:12:02 36.9275 -84.1775 347° North 420 483 27,500 -1,452 Descending Indianapolis Center
Fri 08:13:04 37.0378 -84.2078 348° North 411 473 25,400 -2,323 Descending Indianapolis Center
Fri 08:14:06 37.1658 -84.2439 347° North 406 467 22,700 -2,419 Descending Indianapolis Center
Fri 08:15:08 37.2750 -84.2750 347° North 405 466 20,400 -1,940 Descending Indianapolis Center
Fri 08:20:14 37.7697 -84.4159 347° North 323 372 10,800 -1,779 Descending FlightAware ADS-B
Fri 08:21:19 37.8586 -84.4286 347° North 323 372 9,400 -1,276 Descending Indianapolis Center
Fri 08:22:21 37.9403 -84.4353 356° North 300 345 8,100 -1,742 Descending Indianapolis Center
Fri 08:23:23 38.0181 -84.4414 356° North 286 329 5,800 -1,790 Descending Indianapolis Center
Fri 08:24:25 38.0844 -84.3939 29° Northeast 282 325 4,400 -919 Descending Indianapolis Center
Fri 08:25:27 38.1294 -84.4506 315° West 244 281 3,900 -774 Descending Indianapolis Center
Fri 08:26:29 38.1061 -84.5253 248° West 233 268 2,800 -1,065 Descending Indianapolis Center
Fri 08:27:31 38.0683 -84.5697 223° Southwest 213 245 1,700 -823 Descending Indianapolis Center
Fri 08:28:33 38.0361 -84.6058 221° Southwest 193 222 1,100 -581 Descending Indianapolis Center
Fri 08:30:00 38.0333 -84.6000 302° West  Level FlightAware Approximate

Login

Don't have an account? Register now (free) for customized features, flight alerts, and more!